Home > Weather > Kairouan > Past weeks

Flag for Tunisia Past Weather in Kairouan, Tunisia — Yesterday and Last 2 Weeks

Now
88 °F

Passing clouds.


Feels Like: 89 °F
Forecast: 72 / 95 °F
Wind: 2 mph from North

Location: Kairouan Airport

Current Time: Jun 30, 2016 at 10:25:45 PM

Latest Report: Jun 30, 2016 at 9:00 PM


Visibility: N/A

Pressure: 29.92 "Hg

Humidity: 46%

Dew Point: 64 °F

Location of KairouanLocation

Past Weather in Kairouan — Graph

°F

Kairouan Temperature Yesterday

Maximum temperature yesterday: 99 °F (at 4:00 PM)
Minimum temperature yesterday: 72 °F (at 5:00 AM)
Average temperature yesterday: 85 °F

High & Low Weather Summary for the Past Weeks

 TemperatureHumidityPressure
High106 °F (Jun 26, 4:00 PM)74% (Jun 16, 3:00 AM)30.18 "Hg (Jun 16, 3:00 AM)
Low66 °F (Jun 21, 4:00 AM)17% (Jun 26, 4:00 PM)29.59 "Hg (Jun 16, 2:00 AM)
Average82 °F41%29.99 "Hg
* Reported Jun 15 9:00 PM — Jun 30 9:00 PM, Kairouan, Weather by CustomWeather, © 2016

Note: Actual official high and low records may vary slightly from our data, if they occured in-between our weather recording intervals... More about our weather records

Advertising

Kairouan Weather History for the Previous 24 Hours

Scroll right to see more
 ConditionsComfort  
Time TempWeatherWind HumidityBarometerVisibility
9:00 PM
Thu, Jun 30
88 °FPassing clouds.2 mph46%29.92 "HgN/A
8:00 PM91 °FPassing clouds.2 mph20%29.89 "HgN/A
7:00 PM97 °FPassing clouds.No wind19%29.89 "HgN/A
6:00 PM99 °FPassing clouds.5 mph18%29.86 "HgN/A
5:00 PM102 °FPassing clouds.2 mph17%29.86 "HgN/A
4:00 PM102 °FPassing clouds.2 mph18%29.86 "HgN/A
3:00 PM100 °FPassing clouds.7 mph20%29.89 "HgN/A
2:00 PM100 °FPassing clouds.5 mph20%29.92 "HgN/A
1:00 PM99 °FSunny.2 mph27%29.92 "Hg10 mi
12:00 PM93 °FSunny.2 mph34%29.95 "Hg10 mi
11:00 AM88 °FScattered clouds.2 mph43%29.95 "HgN/A
10:00 AM81 °FThunderstorms. Scattered clouds.9 mph58%29.95 "HgN/A
9:00 AM82 °FScattered clouds.2 mph55%30.01 "HgN/A
8:00 AM81 °FPassing clouds.2 mph58%29.98 "HgN/A
7:00 AM79 °FPassing clouds.2 mph54%29.98 "HgN/A
6:00 AM77 °FWarm.2 mph51%29.95 "HgN/A
5:00 AM77 °FPassing clouds.1 mph54%29.92 "HgN/A
4:00 AM77 °FPassing clouds.2 mph51%29.95 "HgN/A
3:00 AM77 °FPassing clouds.5 mph47%29.92 "HgN/A
2:00 AM79 °FPassing clouds.2 mph42%29.98 "HgN/A
1:00 AM79 °FPassing clouds.No wind39%29.92 "HgN/A
12:00 AM81 °FPassing clouds.No wind37%29.95 "HgN/A
11:00 PM
Wed, Jun 29
84 °FPassing clouds.No wind33%29.95 "HgN/A
10:00 PM84 °FPassing clouds.2 mph33%29.95 "HgN/A
Weather by CustomWeather, © 2016

See weather overviewHow to use our weather pages